[[{"header":{"parameterUnit":"m.s-1","parameterCategory":1,"la1":30.2991,"la2":30.254,"lo1":-89.0895,"lo2":-89.0444,"dx":0.0017,"dy":0.0017,"nx":28,"ny":28,"refTime":"2022-11-04T21:00:00:Z","depth":0,"parameterNumber":2,"parameterNumberName":"U-component_of_WINDS"},"data":[0,0,0,0,0,0,0,0,0,0,0,0,0,0,0,0,0,0,0,0,0,0,0,0,0,0,0,0,0,0,0,0,0,0,0,0,0,0,0,0,0,0,0,0,0,0,0,0,0,0,0,0,0,0,0,0,0,0,0.0627,0.0627,0,0.0648,0.0648,0.0648,0.065,0.065,0.065,0.0649,0.067,0.067,0.0671,0,0,0,0,0,0,0,0,0,0,0,0,0,0.0587,0.0588,0.0627,0.0627,0.0627,0.0648,0.0648,0.0648,0.065,0.065,0.0649,0.0649,0.0669,0.067,0.0671,0,0,0,0,0,0,0,0,0,0,0,0,0,0.0606,0.0588,0.0627,0.0631,0.0631,0.0648,0.0648,0.0648,0.065,0.065,0.0649,0.0649,0.0669,0.067,0.0671,0.0685,0,0,0.0675,0.0675,0,0,0,0,0,0,0,0,0.0605,0.0607,0.063,0.063,0.0631,0.0646,0.0642,0.0661,0.065,0.0643,0.0649,0.0649,0.0662,0.0664,0.0668,0.0686,0.0687,0.0675,0.0676,0.0676,0.0676,0,0,0,0,0,0,0,0.0604,0.0606,0.0635,0.063,0.0631,0.0631,0.0633,0.0645,0.0654,0.0643,0.0644,0.0646,0.0662,0.0667,0.0669,0.0687,0.0675,0.0676,0.0677,0.0677,0.0718,0.0719,0,0,0,0,0,0,0.0602,0.0605,0.0634,0.0636,0.0617,0.0632,0.0635,0.0641,0.0654,0.0655,0.0646,0.0646,0.0665,0.0667,0.067,0.0687,0.0676,0.0677,0.0678,0.0718,0.0719,0.0719,0,0,0,0,0,0,0.0601,0.0604,0.0633,0.0621,0.0624,0.0633,0.0641,0.0642,0.0647,0.0656,0.0658,0.065,0.0665,0.0668,0.0682,0.0688,0.0678,0.0679,0.0718,0.0718,0.0719,0.0723,0,0,0,0,0,0,0.06,0.0604,0.0609,0.0621,0.0625,0.0645,0.0641,0.0643,0.0649,0.0649,0.066,0.0661,0.0665,0.068,0.0683,0.0689,0.0679,0.0717,0.0718,0.0719,0.0722,0.0723,0.0725,0,0,0,0,0,0.0598,0.0609,0.061,0.0613,0.0632,0.0646,0.0648,0.0653,0.065,0.0655,0.0661,0.0661,0.0687,0.0681,0.0684,0.0692,0.0717,0.0718,0.0719,0.0722,0.0723,0.0725,0,0,0,0,0,0,0.0597,0.0611,0.0611,0.0626,0.0635,0.0646,0.0653,0.0654,0.0664,0.0663,0.0668,0.067,0.0684,0.0689,0.0683,0.0706,0.0701,0.0703,0.0703,0.0704,0.0705,0.0704,0.068,0,0,0,0,0,0.0599,0.0609,0.062,0.0632,0.0637,0.0644,0.065,0.0653,0.0662,0.0666,0.0673,0.0681,0.0691,0.0698,0.0708,0.0723,0.0725,0.0729,0.073,0.0731,0.0733,0.0742,0.0744,0.0722,0.0722,0.0722,0,0,0.0602,0.0611,0.0617,0.0632,0.0639,0.065,0.0647,0.0658,0.0666,0.0667,0.0681,0.0686,0.0696,0.0711,0.0718,0.0716,0.074,0.0733,0.0733,0.0734,0.0744,0.0746,0.0748,0.0723,0.0723,0.0723,0,0,0.0614,0.0621,0.0632,0.064,0.0651,0.0656,0.0659,0.067,0.0674,0.0688,0.069,0.0699,0.0716,0.0723,0.0729,0.0745,0.0745,0.0748,0.0755,0.0764,0.0765,0.0767,0.0774,0.0776,0.0749,0.0749,0.0749,0,0.0616,0.0633,0.0638,0.065,0.0657,0.0659,0.0671,0.0677,0.0691,0.0696,0.0693,0.0716,0.0722,0.0739,0.0743,0.0748,0.0751,0.0747,0.0765,0.0767,0.0768,0.0774,0.0777,0.075,0.0749,0.0749,0.0749,0,0.0636,0.0647,0.0655,0.0669,0.0677,0.0689,0.0696,0.0703,0.0705,0.0711,0.0725,0.0734,0.0746,0.075,0.0752,0.0767,0.0766,0.0764,0.0759,0.077,0.0776,0.0779,0.075,0.075,0.075,0.075,0,0,0.0647,0.0665,0.0668,0.0675,0.0688,0.0697,0.0708,0.0721,0.0727,0.0737,0.0747,0.0762,0.0761,0.0768,0.0771,0.0778,0.0792,0.0776,0.0776,0.0779,0.081,0.0812,0.0815,0.0792,0.0792,0.0793,0.081,0,0.0661,0.0683,0.0688,0.0707,0.0718,0.0721,0.0731,0.074,0.0746,0.0756,0.0761,0.0773,0.077,0.0774,0.0782,0.0788,0.0798,0.0787,0.0802,0.0802,0.08,0.0818,0.082,0.0835,0.0812,0.0812,0.0813,0,0.068,0.0691,0.0711,0.0724,0.0728,0.0738,0.075,0.076,0.077,0.0774,0.0782,0.0784,0.0797,0.0791,0.0809,0.0802,0.0808,0.0812,0.0813,0.0815,0.0809,0.0821,0.0841,0.0843,0.0816,0.0816,0.0816,0,0.0687,0.0707,0.0722,0.0728,0.0742,0.0749,0.0755,0.0766,0.0773,0.0784,0.0789,0.0801,0.0807,0.0816,0.0822,0.0817,0.0839,0.0834,0.0843,0.0843,0.0848,0.0848,0.087,0.0851,0.0851,0.0851,0.0851,0,0.0703,0.0715,0.0726,0.0735,0.0749,0.0755,0.0769,0.0775,0.0784,0.0795,0.0797,0.0807,0.0814,0.0824,0.0829,0.0843,0.0846,0.0849,0.0851,0.085,0.0849,0.0854,0.0854,0.0851,0.0851,0.0851,0.0851,0,0.0713,0.0721,0.0738,0.0751,0.0754,0.0764,0.0775,0.0785,0.079,0.0804,0.0807,0.0816,0.0829,0.0836,0.0851,0.0854,0.0871,0.0871,0.0868,0.0868,0.0877,0.0877,0.0904,0.0908,0.0886,0.0886,0.0886,0,0.0723,0.0733,0.0747,0.0755,0.0762,0.0774,0.0782,0.0788,0.0797,0.081,0.0818,0.0831,0.0842,0.0862,0.087,0.0882,0.0883,0.0892,0.0885,0.0884,0.0884,0.0884,0.0886,0.0893,0.0893,0.0894,0.0894,0,0.074,0.0743,0.0755,0.0768,0.0778,0.0789,0.0799,0.0805,0.0814,0.0823,0.0836,0.0845,0.0862,0.0875,0.0888,0.0894,0.0896,0.0896,0.0899,0.0898,0.0896,0.0899,0.0872,0.0895,0.0895,0.0895,0.0895,0.0895,0.0751,0.076,0.0772,0.0785,0.0794,0.0804,0.0814,0.0822,0.0833,0.0848,0.0851,0.0866,0.0877,0.0894,0.0901,0.0913,0.0911,0.0915,0.0916,0.0917,0.0918,0.0894,0.0915,0.0915,0.0915,0.0915,0.0915,0,0.0768,0.0776,0.0789,0.0804,0.0815,0.0815,0.0827,0.0836,0.0849,0.086,0.0871,0.0887,0.09,0.0909,0.0923,0.093,0.0931,0.0934,0.0934,0.0935,0.0919,0.0915,0.0933,0.0933,0.0933,0.0933,0.0933,0.0933,0.0778,0.0795,0.08,0.0821,0.0829,0.0844,0.0851,0.086,0.0869,0.0887,0.0898,0.0904,0.0915,0.0929,0.0941,0.0944,0.0949,0.0951,0.0954,0.0938,0.0936,0.0934,0.0931,0.0952,0.0952,0.097,0.097,0.097]},{"header":{"parameterUnit":"m.s-1","parameterCategory":1,"la1":30.2991,"la2":30.254,"lo1":-89.0895,"lo2":-89.0444,"dx":0.0017,"dy":0.0017,"nx":28,"ny":28,"refTime":"2022-11-04T21:00:00:Z","depth":0,"parameterNumber":3,"parameterNumberName":"V-component_of_WINDS"},"data":[0,0,0,0,0,0,0,0,0,0,0,0,0,0,0,0,0,0,0,0,0,0,0,0,0,0,0,0,0,0,0,0,0,0,0,0,0,0,0,0,0,0,0,0,0,0,0,0,0,0,0,0,0,0,0,0,0,0,1.6188,1.6188,0,1.6149,1.6148,1.6148,1.6098,1.6098,1.6097,1.6096,1.6056,1.6055,1.6055,0,0,0,0,0,0,0,0,0,0,0,0,0,1.6222,1.6222,1.6188,1.6188,1.6187,1.6149,1.6148,1.6148,1.6099,1.6098,1.6097,1.6096,1.6056,1.6055,1.6055,0,0,0,0,0,0,0,0,0,0,0,0,0,1.6197,1.6221,1.6189,1.6158,1.6155,1.6149,1.6148,1.6148,1.6099,1.6098,1.6096,1.6095,1.6056,1.6055,1.6055,1.6075,0,0,1.6053,1.6053,0,0,0,0,0,0,0,0,1.6199,1.6196,1.6163,1.616,1.6157,1.6127,1.6145,1.6123,1.6099,1.612,1.6096,1.6095,1.608,1.6078,1.6073,1.6073,1.6072,1.6053,1.6053,1.6053,1.6053,0,0,0,0,0,0,0,1.6201,1.6198,1.6173,1.6163,1.6159,1.6147,1.6142,1.6141,1.6107,1.6118,1.6115,1.6111,1.6079,1.6074,1.6072,1.6071,1.6053,1.6053,1.6053,1.6052,1.6086,1.6087,0,0,0,0,0,0,1.6207,1.6199,1.6174,1.6171,1.6175,1.6147,1.6142,1.6138,1.6107,1.6101,1.6112,1.6108,1.6075,1.6072,1.607,1.6092,1.6053,1.6052,1.6052,1.6085,1.6086,1.6088,0,0,0,0,0,0,1.6208,1.6205,1.6176,1.6184,1.618,1.6148,1.6144,1.6138,1.6133,1.6102,1.6096,1.6113,1.6074,1.6071,1.6074,1.609,1.6052,1.6052,1.6084,1.6085,1.6087,1.6136,0,0,0,0,0,0,1.6209,1.6206,1.6213,1.6185,1.6179,1.6181,1.6145,1.6138,1.6132,1.6128,1.6102,1.6096,1.6073,1.6075,1.6074,1.6089,1.6051,1.6082,1.6084,1.6087,1.6133,1.614,1.6145,0,0,0,0,0,1.621,1.6228,1.6214,1.6211,1.6188,1.6182,1.6178,1.6151,1.6134,1.6141,1.6121,1.6097,1.6089,1.6076,1.6074,1.6089,1.6081,1.6084,1.6086,1.6131,1.6139,1.6145,0,0,0,0,0,0,1.6259,1.6224,1.6207,1.6217,1.6203,1.6173,1.6182,1.616,1.6151,1.6147,1.6113,1.6108,1.6116,1.6102,1.6089,1.6107,1.6081,1.6084,1.6116,1.6123,1.6129,1.6132,1.6051,0,0,0,0,0,1.6271,1.6269,1.6238,1.625,1.6243,1.6214,1.621,1.619,1.6174,1.6168,1.6148,1.6134,1.6127,1.6124,1.6117,1.6131,1.6125,1.614,1.6146,1.6151,1.6154,1.6161,1.6167,1.6097,1.6097,1.6097,0,0,1.6296,1.6276,1.6277,1.6259,1.6246,1.6244,1.6209,1.6209,1.6208,1.6168,1.617,1.6155,1.6137,1.6146,1.6149,1.6135,1.6172,1.6155,1.6159,1.6159,1.6164,1.6171,1.6177,1.6099,1.6098,1.6098,0,0,1.634,1.6325,1.6333,1.632,1.63,1.628,1.6282,1.6256,1.6245,1.6247,1.6217,1.6215,1.6205,1.6193,1.6186,1.6226,1.6203,1.6224,1.6256,1.6263,1.6268,1.6273,1.6288,1.6294,1.6227,1.6227,1.6227,0,1.6373,1.6369,1.634,1.6341,1.6335,1.6298,1.6307,1.6296,1.6274,1.6271,1.6255,1.6243,1.6227,1.6233,1.6243,1.6238,1.624,1.6227,1.627,1.6274,1.6278,1.6292,1.6298,1.623,1.6229,1.6229,1.6229,0,1.6411,1.641,1.6418,1.6399,1.6393,1.6398,1.6369,1.6367,1.6348,1.633,1.6332,1.6312,1.6301,1.6301,1.6282,1.6304,1.6296,1.6276,1.6249,1.6288,1.6301,1.6306,1.6233,1.6232,1.6232,1.6231,0,0,1.6486,1.645,1.6454,1.6445,1.642,1.6418,1.6421,1.641,1.6409,1.6395,1.6398,1.639,1.6371,1.6363,1.6342,1.6349,1.6382,1.6327,1.6327,1.6339,1.6406,1.6422,1.6429,1.6367,1.6368,1.6369,1.6408,0,1.6526,1.653,1.6503,1.6514,1.6512,1.6478,1.6481,1.6466,1.6449,1.6445,1.6426,1.6422,1.6397,1.6392,1.6397,1.6377,1.6395,1.6374,1.6369,1.637,1.6376,1.6435,1.6452,1.649,1.6413,1.6414,1.6414,0,1.6573,1.6563,1.6574,1.6549,1.6547,1.655,1.6538,1.6534,1.6517,1.6504,1.6495,1.6472,1.6473,1.6448,1.645,1.6436,1.6432,1.6423,1.6424,1.6423,1.6395,1.6437,1.6502,1.6508,1.6421,1.6421,1.642,0,1.6627,1.6616,1.6621,1.6614,1.6585,1.6588,1.6576,1.6558,1.6553,1.6542,1.6538,1.6528,1.6522,1.6515,1.6489,1.6472,1.6494,1.6466,1.6484,1.6485,1.6491,1.6491,1.6557,1.6488,1.6488,1.6488,1.6487,0,1.6675,1.6684,1.6645,1.6648,1.6656,1.6625,1.6635,1.6619,1.6603,1.6603,1.6572,1.6573,1.6538,1.6535,1.6515,1.652,1.6518,1.6508,1.6502,1.6511,1.6512,1.6509,1.6506,1.6489,1.6489,1.6488,1.6488,0,1.6737,1.6711,1.6715,1.6687,1.668,1.6688,1.6664,1.6666,1.6647,1.6647,1.6646,1.6616,1.6611,1.6584,1.6573,1.6559,1.6572,1.656,1.6578,1.6574,1.6594,1.6593,1.6661,1.6668,1.6594,1.6594,1.6595,0,1.677,1.6775,1.6748,1.6746,1.6736,1.6732,1.6727,1.6697,1.6692,1.6673,1.6678,1.667,1.6662,1.6655,1.6633,1.6624,1.6613,1.6637,1.6611,1.662,1.6614,1.6614,1.6615,1.6643,1.6644,1.6645,1.6645,0,1.6831,1.6818,1.6812,1.6801,1.6796,1.6786,1.6774,1.6774,1.674,1.6737,1.6731,1.6725,1.6713,1.6706,1.6693,1.6681,1.6658,1.6654,1.6658,1.6667,1.6677,1.6672,1.6594,1.6652,1.6652,1.6651,1.6651,1.6651,1.688,1.6883,1.6865,1.6859,1.6847,1.6837,1.6837,1.6819,1.6813,1.6801,1.6784,1.678,1.6763,1.6744,1.6733,1.673,1.6717,1.6722,1.6724,1.6726,1.6731,1.6677,1.6728,1.6727,1.6727,1.6727,1.6727,0,1.694,1.6926,1.6921,1.6906,1.6901,1.6879,1.6865,1.6863,1.686,1.6846,1.6839,1.6833,1.6825,1.6803,1.6793,1.6795,1.6785,1.6794,1.6794,1.6792,1.6742,1.674,1.6803,1.6803,1.6803,1.6803,1.6803,1.6803,1.6971,1.6976,1.6961,1.6959,1.6946,1.6942,1.6936,1.6927,1.6915,1.6909,1.6903,1.6888,1.6871,1.686,1.6853,1.6846,1.6844,1.6858,1.6848,1.6802,1.6795,1.6788,1.6786,1.6857,1.6857,1.6897,1.6897,1.6898]}]]